Location: Street
(51.1247°N, 2.7429°W)
Time: 06:17:56
(UTC+00:00)

SR - Pass Details

Date: 27 November 2020
Orbit: 576 x 880 km, 66.7° (Epoch: 16 January)

Event Time Altitude Azimuth Distance (km) Brightness Sun altitude
Rises 22:57:32 0° 301° (WNW) 2,968 - -57.9°
Reaches altitude 10° 23:01:02 10° 329° (NNW) 2,125 - -58.1°
Maximum altitude 23:03:20 13° 358° (N) 1,958 - -58.3°
Drops below altitude 10° 23:05:43 10° 27° (NNE) 2,221 - -58.5°
Sets 23:09:33 0° 54° (NE) 3,224 - -58.7°
